Terminal Aerodrome Forecast
Issued by NWS

Home | Current Version | Previous Version | Text Only | Print | Product List | Glossary On
Versions: 1 2 3 4 5 6 7 8 9 10 11 12 13 14 15 16 17
534
FTAK31 PAJN 231406 AAB
TAFAYA
TAF AMD
PAYA 231406Z 2314/2412 14011KT 6SM -RA SCT006 OVC010
      TEMPO 2314/2316 3SM -RASN BR OVC006
     FM231600 14010KT 6SM -RA BKN015 OVC025
     FM232100 17004KT 5SM -SHSN BKN025 OVC035
     FM240600 08006KT 2SM -SN BKN015 OVC025
      AMD LTD TO CLD VIS AND WIND 2401/2409=

USA.gov is the U.S. government's official web portal to all federal, state and local government web resources and services.